TimeAKST,TemperatureF,Dew PointF,Humidity,Sea Level PressureIn,VisibilityMPH,Wind Direction,Wind SpeedMPH,Gust SpeedMPH,PrecipitationIn,Events,Conditions,WindDirDegrees,DateUTC
12:16 AM,30.2,21.2,69,30.07,10.0,Calm,Calm,-,N/A,,Mostly Cloudy,0,2013-01-09 09:16:00
12:36 AM,30.2,23.0,75,30.06,10.0,Calm,Calm,-,N/A,,Overcast,0,2013-01-09 09:36:00
12:56 AM,28.4,23.0,80,30.06,10.0,Calm,Calm,-,N/A,,Overcast,0,2013-01-09 09:56:00
1:16 AM,30.2,23.0,75,30.06,10.0,Calm,Calm,-,N/A,,Overcast,0,2013-01-09 10:16:00
1:36 AM,30.2,24.8,80,30.05,10.0,Calm,Calm,-,N/A,,Overcast,0,2013-01-09 10:36:00
1:56 AM,30.2,24.8,80,30.04,10.0,NNE,3.5,-,N/A,,Overcast,30,2013-01-09 10:56:00
2:16 AM,30.2,24.8,80,30.03,10.0,Calm,Calm,-,N/A,,Overcast,0,2013-01-09 11:16:00
2:36 AM,32.0,24.8,75,30.03,10.0,Calm,Calm,-,N/A,,Overcast,0,2013-01-09 11:36:00
2:56 AM,30.2,24.8,80,30.02,10.0,Calm,Calm,-,N/A,,Overcast,0,2013-01-09 11:56:00
3:16 AM,30.2,24.8,80,30.01,10.0,Calm,Calm,-,N/A,,Mostly Cloudy,0,2013-01-09 12:16:00
3:36 AM,32.0,26.6,80,30.01,10.0,South,3.5,-,N/A,,Mostly Cloudy,190,2013-01-09 12:36:00
3:56 AM,30.2,26.6,86,30.00,10.0,ENE,3.5,-,N/A,,Scattered Clouds,70,2013-01-09 12:56:00
4:16 AM,32.0,26.6,80,29.99,10.0,Calm,Calm,-,N/A,,Scattered Clouds,0,2013-01-09 13:16:00
4:36 AM,35.6,28.4,75,29.99,10.0,North,3.5,-,N/A,,Mostly Cloudy,350,2013-01-09 13:36:00
4:56 AM,35.6,28.4,75,29.98,10.0,North,8.1,-,N/A,,Partly Cloudy,350,2013-01-09 13:56:00
5:16 AM,33.8,28.4,81,29.97,10.0,NE,3.5,-,N/A,,Partly Cloudy,50,2013-01-09 14:16:00
5:36 AM,33.8,28.4,81,29.96,10.0,West,3.5,-,N/A,,Partly Cloudy,260,2013-01-09 14:36:00
5:56 AM,35.6,30.2,81,29.95,10.0,North,5.8,-,N/A,,Mostly Cloudy,350,2013-01-09 14:56:00
6:16 AM,37.4,30.2,75,29.94,10.0,North,4.6,16.1,N/A,,Overcast,350,2013-01-09 15:16:00
6:36 AM,41.0,28.4,61,29.93,9.0,SSE,6.9,19.6,N/A,,Mostly Cloudy,150,2013-01-09 15:36:00
6:56 AM,39.2,28.4,65,29.92,8.0,ESE,5.8,-,N/A,,Mostly Cloudy,120,2013-01-09 15:56:00
7:16 AM,39.2,28.4,65,29.91,9.0,SE,13.8,23.0,N/A,,Scattered Clouds,140,2013-01-09 16:16:00
7:36 AM,39.2,30.2,70,29.91,6.0,SE,8.1,-,N/A,,Partly Cloudy,140,2013-01-09 16:36:00
7:56 AM,37.4,30.2,75,29.91,5.0,ESE,5.8,-,N/A,,Clear,110,2013-01-09 16:56:00
8:16 AM,39.2,30.2,70,29.91,5.0,SSE,8.1,-,N/A,,Clear,150,2013-01-09 17:16:00
8:36 AM,37.4,30.2,75,29.90,5.0,SE,9.2,-,N/A,,Clear,140,2013-01-09 17:36:00
8:56 AM,37.4,30.2,75,29.89,6.0,ESE,6.9,16.1,N/A,,Clear,120,2013-01-09 17:56:00
9:16 AM,39.2,30.2,70,29.88,7.0,Calm,Calm,-,N/A,,Scattered Clouds,0,2013-01-09 18:16:00
9:36 AM,37.4,30.2,75,29.87,10.0,NW,3.5,-,N/A,,Mostly Cloudy,320,2013-01-09 18:36:00
9:56 AM,37.4,30.2,75,29.86,5.0,SE,4.6,-,N/A,,Partly Cloudy,130,2013-01-09 18:56:00
10:16 AM,39.2,30.2,70,29.84,6.0,SSE,10.4,19.6,N/A,,Clear,150,2013-01-09 19:16:00
10:36 AM,39.2,30.2,70,29.83,5.0,SSE,6.9,-,N/A,,Scattered Clouds,150,2013-01-09 19:36:00
10:56 AM,39.2,30.2,70,29.83,5.0,SE,11.5,24.2,N/A,,Clear,130,2013-01-09 19:56:00
11:16 AM,39.2,30.2,70,29.82,5.0,ESE,11.5,18.4,N/A,,Partly Cloudy,110,2013-01-09 20:16:00
11:36 AM,39.2,30.2,70,29.80,6.0,SE,6.9,16.1,N/A,,Mostly Cloudy,140,2013-01-09 20:36:00
11:56 AM,39.2,30.2,70,29.78,7.0,SSE,9.2,-,N/A,,Overcast,150,2013-01-09 20:56:00
12:16 PM,39.2,30.2,70,29.77,6.0,ESE,11.5,17.3,N/A,,Overcast,110,2013-01-09 21:16:00
12:36 PM,39.2,30.2,70,29.76,9.0,SSW,6.9,21.9,N/A,,Overcast,200,2013-01-09 21:36:00
12:56 PM,37.4,30.2,75,29.75,9.0,ENE,9.2,16.1,N/A,,Overcast,60,2013-01-09 21:56:00
1:16 PM,37.4,30.2,75,29.74,10.0,North,8.1,-,N/A,,Overcast,350,2013-01-09 22:16:00
1:36 PM,37.4,32.0,81,29.72,10.0,North,15.0,-,N/A,,Overcast,350,2013-01-09 22:36:00
1:56 PM,35.6,30.2,81,29.70,10.0,North,13.8,-,N/A,,Overcast,350,2013-01-09 22:56:00
2:16 PM,37.4,30.2,75,29.70,10.0,North,11.5,-,N/A,,Overcast,360,2013-01-09 23:16:00
2:36 PM,37.4,32.0,81,29.70,9.0,NE,6.9,-,0.02,,Overcast,50,2013-01-09 23:36:00
2:56 PM,37.4,32.0,81,29.69,10.0,NNE,4.6,-,0.03,,Overcast,30,2013-01-09 23:56:00
3:16 PM,37.4,32.0,81,29.69,10.0,NNW,5.8,-,0.01,,Overcast,330,2013-01-10 00:16:00
3:36 PM,35.6,32.0,87,29.68,10.0,Calm,Calm,-,0.01,,Overcast,0,2013-01-10 00:36:00
3:56 PM,35.6,32.0,87,29.68,10.0,SE,4.6,-,0.01,,Overcast,140,2013-01-10 00:56:00
4:16 PM,37.4,33.8,87,29.68,10.0,Calm,Calm,-,N/A,,Overcast,0,2013-01-10 01:16:00
4:36 PM,35.6,32.0,87,29.69,10.0,Calm,Calm,-,N/A,,Overcast,0,2013-01-10 01:36:00
4:56 PM,37.4,32.0,81,29.68,10.0,North,9.2,-,N/A,,Overcast,350,2013-01-10 01:56:00
5:16 PM,37.4,33.8,87,29.70,10.0,SSE,4.6,-,N/A,,Overcast,150,2013-01-10 02:16:00
5:36 PM,37.4,32.0,81,29.71,10.0,NNE,6.9,-,N/A,,Scattered Clouds,30,2013-01-10 02:36:00
5:56 PM,37.4,32.0,81,29.72,10.0,Calm,Calm,-,N/A,,Scattered Clouds,0,2013-01-10 02:56:00
6:16 PM,37.4,30.2,75,29.73,10.0,West,6.9,-,N/A,,Overcast,280,2013-01-10 03:16:00
6:36 PM,37.4,30.2,75,29.74,10.0,Calm,Calm,-,N/A,,Overcast,0,2013-01-10 03:36:00
6:56 PM,37.4,30.2,75,29.75,10.0,Calm,Calm,-,N/A,,Overcast,0,2013-01-10 03:56:00
7:16 PM,37.4,30.2,75,29.75,10.0,North,3.5,-,N/A,,Overcast,10,2013-01-10 04:16:00
7:36 PM,37.4,30.2,75,29.76,10.0,Calm,Calm,-,N/A,,Overcast,0,2013-01-10 04:36:00
7:56 PM,37.4,30.2,75,29.77,10.0,Calm,Calm,-,N/A,,Overcast,0,2013-01-10 04:56:00
8:16 PM,37.4,30.2,75,29.78,10.0,Calm,Calm,-,N/A,,Overcast,0,2013-01-10 05:16:00
8:36 PM,35.6,30.2,81,29.78,10.0,Calm,Calm,-,N/A,,Mostly Cloudy,0,2013-01-10 05:36:00
8:56 PM,35.6,30.2,81,29.79,10.0,Calm,Calm,-,N/A,,Partly Cloudy,0,2013-01-10 05:56:00
9:16 PM,35.6,30.2,81,29.80,10.0,Calm,Calm,-,N/A,,Clear,0,2013-01-10 06:16:00
9:36 PM,35.6,30.2,81,29.82,10.0,SE,4.6,-,N/A,,Partly Cloudy,130,2013-01-10 06:36:00
9:56 PM,33.8,28.4,81,29.83,10.0,ENE,3.5,-,N/A,,Mostly Cloudy,60,2013-01-10 06:56:00
10:16 PM,33.8,30.2,87,29.84,10.0,Calm,Calm,-,N/A,,Scattered Clouds,0,2013-01-10 07:16:00
10:36 PM,33.8,30.2,87,29.84,10.0,Calm,Calm,-,N/A,,Partly Cloudy,0,2013-01-10 07:36:00
10:56 PM,33.8,28.4,81,29.86,10.0,Calm,Calm,-,N/A,,Clear,0,2013-01-10 07:56:00
11:16 PM,33.8,30.2,87,29.86,10.0,Calm,Calm,-,N/A,,Clear,0,2013-01-10 08:16:00
11:36 PM,33.8,28.4,81,29.87,10.0,Calm,Calm,-,N/A,,Clear,0,2013-01-10 08:36:00
11:56 PM,32.0,28.4,87,29.88,10.0,Calm,Calm,-,N/A,,Clear,0,2013-01-10 08:56:00